^^
Saratoga-Weather Station Historical Data
Daily Summary for April 9, 2021 Units:  English    Metric   Both
Daily Weekly Monthly Yearly Custom
  High: Low: Average:
Temperature: 30.9 °F 27.7 °F 29.3 °F
Dew Point: 29.5 °F 25.9 °F 27.9 °F
Humidity: 95% 93% 94%
Wind Speed: 4mph 0mph 1.1mph
Wind Gust: 7mph - -
Wind- - South
Pressure: 29.7 in 29.5 in -
Precipitation: 0 in    
Historical Graphs
 
 
Tabular Data for April 9, 2021
Time Temperature Dew Point Pressure Wind Wind Speed Wind Gust Humidity Rainfall Rate (Hourly) solar
00:03 30.2 °F 28.8 °F 29.5 in WNW 0.9 mph 3 mph 94% 0 in 0 W/m2
00:08 30.2 °F 28.8 °F 29.5 in West 2.9 mph 4 mph 94% 0 in 0 W/m2
00:13 30 °F 28.6 °F 29.5 in WNW 2 mph 4 mph 94% 0 in 0 W/m2
00:18 30 °F 28.6 °F 29.5 in West 2 mph 3 mph 94% 0 in 0 W/m2
00:23 30 °F 28.6 °F 29.5 in West 0.9 mph 1 mph 94% 0 in 0 W/m2
00:28 30 °F 28.6 °F 29.5 in NW 0.9 mph 2 mph 94% 0 in 0 W/m2
00:33 30.2 °F 28.8 °F 29.5 in WNW 0.9 mph 3 mph 94% 0 in 0 W/m2
00:38 30.2 °F 28.8 °F 29.5 in WSW 0.9 mph 4 mph 94% 0 in 0 W/m2
00:43 30.2 °F 28.8 °F 29.5 in Calm   1 mph 94% 0 in 0 W/m2
00:48 30.2 °F 28.8 °F 29.5 in WNW 2.9 mph 4 mph 94% 0 in 0 W/m2
00:53 30.2 °F 28.8 °F 29.5 in Calm   1 mph 94% 0 in 0 W/m2
00:58 30.2 °F 28.8 °F 29.5 in WNW 2 mph 3 mph 94% 0 in 0 W/m2
01:03 30.2 °F 28.8 °F 29.5 in Calm   2 mph 94% 0 in 0 W/m2
01:08 30.4 °F 28.9 °F 29.5 in Calm   3 mph 94% 0 in 0 W/m2
01:13 30.4 °F 28.9 °F 29.5 in Calm     94% 0 in 0 W/m2
01:18 30.4 °F 28.9 °F 29.5 in WNW 2 mph 2 mph 94% 0 in 0 W/m2
01:23 30.2 °F 28.8 °F 29.5 in Calm   3 mph 94% 0 in 0 W/m2
01:28 30.2 °F 28.8 °F 29.5 in Calm   1 mph 94% 0 in 0 W/m2
01:33 30.2 °F 28.8 °F 29.5 in Calm   1 mph 94% 0 in 0 W/m2
01:38 30.4 °F 28.9 °F 29.5 in Calm   2 mph 94% 0 in 0 W/m2
01:43 30.2 °F 28.8 °F 29.5 in Calm     94% 0 in 0 W/m2
01:48 30.4 °F 28.9 °F 29.5 in Calm   1 mph 94% 0 in 0 W/m2
01:54 30.2 °F 28.8 °F 29.5 in West 2.9 mph 3 mph 94% 0 in 0 W/m2
01:59 30.2 °F 28.8 °F 29.5 in West 0.9 mph 2 mph 94% 0 in 0 W/m2
02:04 30.2 °F 28.8 °F 29.5 in WNW 0.9 mph 3 mph 94% 0 in 0 W/m2
02:09 30.2 °F 28.8 °F 29.5 in Calm     94% 0 in 0 W/m2
02:14 30.4 °F 29.1 °F 29.5 in NW 2.9 mph 4 mph 95% 0 in 0 W/m2
02:19 30.4 °F 29.1 °F 29.5 in Calm   1 mph 95% 0 in 0 W/m2
02:24 30.2 °F 28.9 °F 29.5 in West 0.9 mph 2 mph 95% 0 in 0 W/m2
02:29 30.2 °F 28.9 °F 29.5 in Calm   2 mph 95% 0 in 0 W/m2
02:34 30.2 °F 28.9 °F 29.5 in Calm     95% 0 in 0 W/m2
02:39 30.2 °F 28.9 °F 29.5 in Calm   3 mph 95% 0 in 0 W/m2
02:44 30.2 °F 28.9 °F 29.5 in West 2 mph 2 mph 95% 0 in 0 W/m2
02:49 30 °F 28.8 °F 29.5 in WNW 2 mph 3 mph 95% 0 in 0 W/m2
02:54 30 °F 28.8 °F 29.5 in WNW 0.9 mph 2 mph 95% 0 in 0 W/m2
02:59 30 °F 28.8 °F 29.5 in Calm   2 mph 95% 0 in 0 W/m2
03:04 30 °F 28.8 °F 29.5 in West 2.9 mph 6 mph 95% 0 in 0 W/m2
03:09 30 °F 28.6 °F 29.5 in SW 0.9 mph 2 mph 94% 0 in 0 W/m2
03:14 30 °F 28.8 °F 29.5 in WNW 2 mph 4 mph 95% 0 in 0 W/m2
03:19 30 °F 28.8 °F 29.5 in WNW 2 mph 2 mph 95% 0 in 0 W/m2
03:24 30 °F 28.8 °F 29.5 in WNW 0.9 mph 3 mph 95% 0 in 0 W/m2
03:29 30 °F 28.8 °F 29.5 in WNW 0.9 mph 1 mph 95% 0 in 0 W/m2
03:34 30 °F 28.8 °F 29.5 in WSW 2 mph 4 mph 95% 0 in 0 W/m2
03:39 29.8 °F 28.6 °F 29.5 in WSW 0.9 mph 4 mph 95% 0 in 0 W/m2
03:44 29.8 °F 28.6 °F 29.5 in West 2 mph 2 mph 95% 0 in 0 W/m2
03:49 29.8 °F 28.6 °F 29.5 in West 2.9 mph 4 mph 95% 0 in 0 W/m2
03:54 29.8 °F 28.6 °F 29.5 in WSW 2 mph 6 mph 95% 0 in 0 W/m2
03:59 29.8 °F 28.6 °F 29.5 in WNW 0.9 mph 4 mph 95% 0 in 0 W/m2
04:04 29.8 °F 28.6 °F 29.5 in WNW 2 mph 6 mph 95% 0 in 0 W/m2
04:09 29.8 °F 28.6 °F 29.5 in NW 2 mph 4 mph 95% 0 in 0 W/m2
04:14 29.8 °F 28.6 °F 29.5 in NW 0.9 mph 6 mph 95% 0 in 0 W/m2
04:19 29.8 °F 28.6 °F 29.5 in NW 0.9 mph 2 mph 95% 0 in 0 W/m2
04:24 30 °F 28.8 °F 29.5 in West 4 mph 4 mph 95% 0 in 0 W/m2
04:29 30 °F 28.8 °F 29.5 in WNW 2 mph 3 mph 95% 0 in 0 W/m2
04:34 30 °F 28.8 °F 29.5 in West 2.9 mph 4 mph 95% 0 in 0 W/m2
04:39 30 °F 28.8 °F 29.5 in WNW 0.9 mph 3 mph 95% 0 in 0 W/m2
04:44 30 °F 28.8 °F 29.5 in WSW 2 mph 4 mph 95% 0 in 0 W/m2
04:49 30 °F 28.8 °F 29.5 in West 2.9 mph 3 mph 95% 0 in 0 W/m2
04:54 30 °F 28.8 °F 29.5 in WSW 0.9 mph 3 mph 95% 0 in 0 W/m2
04:59 30.2 °F 28.9 °F 29.5 in WSW 2 mph 3 mph 95% 0 in 0 W/m2
05:04 30.2 °F 28.9 °F 29.5 in WSW 2 mph 4 mph 95% 0 in 0 W/m2
05:09 30.2 °F 28.9 °F 29.5 in WNW 4 mph 4 mph 95% 0 in 0 W/m2
05:14 30.4 °F 29.1 °F 29.5 in WNW 2 mph 3 mph 95% 0 in 0 W/m2
05:19 30.4 °F 29.1 °F 29.5 in WNW 2 mph 7 mph 95% 0 in 0 W/m2
05:24 30.4 °F 29.1 °F 29.5 in WNW 2 mph 3 mph 95% 0 in 0 W/m2
05:29 30.4 °F 29.1 °F 29.5 in NW 2 mph 4 mph 95% 0 in 0 W/m2
05:34 30.4 °F 29.1 °F 29.5 in WSW 2 mph 3 mph 95% 0 in 0 W/m2
05:39 30.6 °F 29.3 °F 29.5 in WNW 2 mph 6 mph 95% 0 in 0 W/m2
05:44 30.6 °F 29.3 °F 29.5 in WSW 2.9 mph 3 mph 95% 0 in 0 W/m2
05:49 30.6 °F 29.3 °F 29.6 in WNW 0.9 mph 4 mph 95% 0 in 0 W/m2
05:54 30.6 °F 29.3 °F 29.6 in WNW 2 mph 3 mph 95% 0 in 0 W/m2
05:59 30.6 °F 29.3 °F 29.6 in West 2 mph 3 mph 95% 0 in 0 W/m2
06:04 30.6 °F 29.1 °F 29.6 in WSW 2 mph 4 mph 94% 0 in 0 W/m2
06:09 30.6 °F 29.1 °F 29.6 in WNW 2 mph 2 mph 94% 0 in 0 W/m2
06:14 30.7 °F 29.3 °F 29.6 in West 0.9 mph 4 mph 94% 0 in 0 W/m2
06:19 30.7 °F 29.5 °F 29.6 in West 0.9 mph 2 mph 95% 0 in 0 W/m2
06:24 30.7 °F 29.3 °F 29.6 in West 2 mph 4 mph 94% 0 in 0 W/m2
06:29 30.9 °F 29.5 °F 29.6 in ENE 2.9 mph 3 mph 94% 0 in 0 W/m2
06:34 30.7 °F 29.3 °F 29.6 in East 2 mph 2 mph 94% 0 in 0 W/m2
06:39 30.7 °F 29.3 °F 29.6 in NE 2 mph 3 mph 94% 0 in 0 W/m2
06:44 30.6 °F 29.1 °F 29.6 in East 2 mph 3 mph 94% 0 in 0 W/m2
06:49 30.6 °F 29.1 °F 29.6 in ENE 2.9 mph 4 mph 94% 0 in 0 W/m2
06:54 30.4 °F 28.9 °F 29.6 in Calm   2 mph 94% 0 in 0 W/m2
06:59 30 °F 28.8 °F 29.6 in NE 2 mph 4 mph 95% 0 in 0 W/m2
07:04 30 °F 28.8 °F 29.6 in NW 0.9 mph 2 mph 95% 0 in 0 W/m2
07:09 29.8 °F 28.4 °F 29.6 in NW 2 mph 4 mph 94% 0 in 0 W/m2
07:14 29.8 °F 28.6 °F 29.6 in NW 0.9 mph 3 mph 95% 0 in 0 W/m2
07:19 29.7 °F 28.4 °F 29.6 in NNE 0.9 mph 3 mph 95% 0 in 0 W/m2
07:24 29.7 °F 28.4 °F 29.6 in North 0.9 mph 2 mph 95% 0 in 0 W/m2
07:29 29.7 °F 28.4 °F 29.6 in NW 0.9 mph 3 mph 95% 0 in 0 W/m2
07:34 29.5 °F 28.2 °F 29.6 in NW 0.9 mph 2 mph 95% 0 in 0 W/m2
07:39 29.5 °F 28.2 °F 29.6 in NE 0.9 mph 2 mph 95% 0 in 0 W/m2
07:44 29.3 °F 28 °F 29.6 in Calm   1 mph 95% 0 in 0 W/m2
07:49 29.3 °F 28 °F 29.6 in Calm   2 mph 95% 0 in 0 W/m2
07:54 29.3 °F 28 °F 29.6 in Calm   2 mph 95% 0 in 0 W/m2
07:59 29.3 °F 28 °F 29.6 in Calm   1 mph 95% 0 in 0 W/m2
08:04 29.5 °F 28.2 °F 29.6 in NE 0.9 mph 3 mph 95% 0 in 0 W/m2
08:09 29.5 °F 28.2 °F 29.6 in NNE 0.9 mph 3 mph 95% 0 in 0 W/m2
08:14 29.5 °F 28.2 °F 29.6 in Calm   1 mph 95% 0 in 5 W/m2
08:19 29.3 °F 28 °F 29.6 in NE 0.9 mph 2 mph 95% 0 in 7 W/m2
08:24 29.3 °F 28 °F 29.6 in NNE 0.9 mph 3 mph 95% 0 in 7 W/m2
08:29 29.1 °F 27.9 °F 29.6 in Calm   1 mph 95% 0 in 5 W/m2
08:34 29.1 °F 27.9 °F 29.6 in Calm   1 mph 95% 0 in 7 W/m2
08:39 29.1 °F 27.9 °F 29.6 in Calm   2 mph 95% 0 in 7 W/m2
08:44 29.1 °F 27.9 °F 29.6 in North 0.9 mph 2 mph 95% 0 in 7 W/m2
08:49 29.1 °F 27.9 °F 29.6 in NE 0.9 mph 2 mph 95% 0 in 7 W/m2
08:54 29.1 °F 27.9 °F 29.6 in ESE 2.9 mph 4 mph 95% 0 in 11 W/m2
08:59 28.9 °F 27.7 °F 29.6 in ESE 2 mph 3 mph 95% 0 in 11 W/m2
09:04 28.9 °F 27.5 °F 29.6 in NE 0.9 mph 3 mph 94% 0 in 9 W/m2
09:09 28.9 °F 27.7 °F 29.6 in Calm   2 mph 95% 0 in 11 W/m2
09:15 28.9 °F 27.7 °F 29.6 in Calm   1 mph 95% 0 in 12 W/m2
09:20 28.8 °F 27.5 °F 29.6 in Calm   2 mph 95% 0 in 12 W/m2
09:25 28.8 °F 27.5 °F 29.6 in East 0.9 mph 3 mph 95% 0 in 14 W/m2
09:30 28.8 °F 27.5 °F 29.6 in East 2 mph 3 mph 95% 0 in 14 W/m2
09:35 28.8 °F 27.5 °F 29.6 in East 2 mph 3 mph 95% 0 in 14 W/m2
09:40 28.8 °F 27.5 °F 29.6 in ENE 2 mph 2 mph 95% 0 in 14 W/m2
09:45 28.6 °F 27.3 °F 29.6 in ENE 0.9 mph 2 mph 95% 0 in 14 W/m2
09:50 28.6 °F 27.3 °F 29.6 in Calm   1 mph 95% 0 in 14 W/m2
09:55 28.6 °F 27.3 °F 29.6 in Calm   2 mph 95% 0 in 14 W/m2
10:00 28.6 °F 27.3 °F 29.6 in Calm   3 mph 95% 0 in 14 W/m2
10:05 28.6 °F 27.3 °F 29.6 in NE 2 mph 2 mph 95% 0 in 14 W/m2
10:10 28.8 °F 27.5 °F 29.6 in NE 0.9 mph 2 mph 95% 0 in 18 W/m2
10:15 28.8 °F 27.3 °F 29.6 in Calm   1 mph 94% 0 in 18 W/m2
10:20 28.8 °F 27.3 °F 29.6 in Calm   3 mph 94% 0 in 19 W/m2
10:25 28.8 °F 27.3 °F 29.6 in ENE 2.9 mph 4 mph 94% 0 in 23 W/m2
10:30 28.8 °F 27.3 °F 29.6 in NE 0.9 mph 2 mph 94% 0 in 23 W/m2
10:35 28.8 °F 27.3 °F 29.6 in ENE 0.9 mph 4 mph 94% 0 in 23 W/m2
10:40 28.6 °F 27.1 °F 29.6 in ESE 2 mph 4 mph 94% 0 in 19 W/m2
10:45 28.6 °F 27.1 °F 29.6 in Calm   2 mph 94% 0 in 21 W/m2
10:50 28.6 °F 27.1 °F 29.6 in Calm   4 mph 94% 0 in 21 W/m2
10:55 28.6 °F 27.1 °F 29.6 in NNE 0.9 mph 2 mph 94% 0 in 21 W/m2
11:00 28.6 °F 27.1 °F 29.6 in NNE 0.9 mph 2 mph 94% 0 in 23 W/m2
11:05 28.6 °F 27.1 °F 29.6 in NE 2 mph 3 mph 94% 0 in 23 W/m2
11:10 28.6 °F 26.8 °F 29.6 in NNE 0.9 mph 2 mph 93% 0 in 25 W/m2
11:15 28.6 °F 26.8 °F 29.6 in Calm   1 mph 93% 0 in 23 W/m2
11:20 28.6 °F 26.8 °F 29.6 in NW 0.9 mph 2 mph 93% 0 in 19 W/m2
11:25 28.6 °F 26.8 °F 29.6 in North 0.9 mph 2 mph 93% 0 in 18 W/m2
11:30 28.6 °F 26.8 °F 29.6 in North 0.9 mph 1 mph 93% 0 in 18 W/m2
11:35 28.6 °F 27.1 °F 29.6 in Calm   2 mph 94% 0 in 19 W/m2
11:40 28.6 °F 27.1 °F 29.6 in NE 0.9 mph 2 mph 94% 0 in 23 W/m2
11:45 28.8 °F 27.3 °F 29.7 in NE 2 mph 3 mph 94% 0 in 23 W/m2
11:50 28.6 °F 26.8 °F 29.7 in Calm   1 mph 93% 0 in 25 W/m2
11:55 28.6 °F 26.8 °F 29.7 in Calm   3 mph 93% 0 in 28 W/m2
12:00 28.6 °F 27.1 °F 29.7 in ENE 2 mph 3 mph 94% 0 in 28 W/m2
12:05 28.6 °F 27.1 °F 29.7 in Calm   1 mph 94% 0 in 30 W/m2
12:10 28.6 °F 27.1 °F 29.7 in Calm   1 mph 94% 0 in 25 W/m2
12:15 28.6 °F 27.1 °F 29.7 in Calm     94% 0 in 25 W/m2
12:20 28.8 °F 27.3 °F 29.7 in Calm   4 mph 94% 0 in 30 W/m2
12:25 28.6 °F 27.1 °F 29.7 in Calm   2 mph 94% 0 in 32 W/m2
12:30 28.6 °F 27.1 °F 29.7 in NNW 0.9 mph 4 mph 94% 0 in 33 W/m2
12:35 28.6 °F 26.8 °F 29.7 in ENE 0.9 mph 1 mph 93% 0 in 35 W/m2
12:40 28.4 °F 26.6 °F 29.7 in Calm   1 mph 93% 0 in 28 W/m2
12:45 28.4 °F 26.6 °F 29.7 in Calm   1 mph 93% 0 in 26 W/m2
12:50 28.4 °F 26.6 °F 29.7 in North 0.9 mph 2 mph 93% 0 in 32 W/m2
12:55 28.4 °F 26.6 °F 29.7 in WNW 2.9 mph 3 mph 93% 0 in 30 W/m2
13:00 28.2 °F 26.4 °F 29.7 in Calm   1 mph 93% 0 in 32 W/m2
13:05 28.2 °F 26.4 °F 29.7 in West 2 mph 2 mph 93% 0 in 30 W/m2
13:10 28.2 °F 26.4 °F 29.7 in NNW 2 mph 3 mph 93% 0 in 28 W/m2
13:15 28.2 °F 26.4 °F 29.7 in Calm   3 mph 93% 0 in 25 W/m2
13:20 28.2 °F 26.4 °F 29.7 in Calm   4 mph 93% 0 in 23 W/m2
13:25 28.2 °F 26.4 °F 29.7 in Calm   2 mph 93% 0 in 25 W/m2
13:30 28 °F 26.2 °F 29.7 in NNW 2 mph 2 mph 93% 0 in 25 W/m2
13:36 28 °F 26.2 °F 29.7 in NW 0.9 mph 2 mph 93% 0 in 26 W/m2
13:41 28 °F 26.2 °F 29.7 in NE 2.9 mph 3 mph 93% 0 in 26 W/m2
13:46 28 °F 26.2 °F 29.7 in Calm   2 mph 93% 0 in 26 W/m2
13:51 28 °F 26.6 °F 29.7 in ENE 0.9 mph 2 mph 94% 0 in 23 W/m2
13:56 28 °F 26.6 °F 29.7 in NW 0.9 mph 1 mph 94% 0 in 26 W/m2
14:01 28 °F 26.6 °F 29.7 in ENE 0.9 mph 2 mph 94% 0 in 28 W/m2
14:06 28 °F 26.6 °F 29.7 in North 2 mph 2 mph 94% 0 in 26 W/m2
14:11 27.9 °F 26.4 °F 29.7 in Calm   1 mph 94% 0 in 26 W/m2
14:16 28 °F 26.6 °F 29.7 in ENE 2 mph 4 mph 94% 0 in 25 W/m2
14:21 27.9 °F 26.4 °F 29.7 in NE 2 mph 3 mph 94% 0 in 26 W/m2
14:26 27.9 °F 26.4 °F 29.7 in Calm   1 mph 94% 0 in 30 W/m2
14:31 27.9 °F 26.4 °F 29.7 in ENE 0.9 mph 3 mph 94% 0 in 28 W/m2
14:36 27.7 °F 25.9 °F 29.7 in East 2.9 mph 5 mph 93% 0 in 26 W/m2
14:41 27.7 °F 25.9 °F 29.7 in ENE 0.9 mph 3 mph 93% 0 in 25 W/m2
14:46 27.7 °F 26.2 °F 29.7 in ENE 0.9 mph 5 mph 94% 0 in 25 W/m2
14:51 27.7 °F 26.2 °F 29.7 in ENE 0.9 mph 2 mph 94% 0 in 25 W/m2
14:56 27.7 °F 25.9 °F 29.7 in ESE 2.9 mph 3 mph 93% 0 in 25 W/m2
15:01 27.9 °F 26.4 °F 29.7 in NE 0.9 mph 2 mph 94% 0 in 21 W/m2
15:06 27.7 °F 26.2 °F 29.7 in ENE 2 mph 3 mph 94% 0 in 25 W/m2
15:11 27.7 °F 25.9 °F 29.7 in ESE 0.9 mph 2 mph 93% 0 in 25 W/m2
15:16 27.7 °F 26.2 °F 29.7 in SE 0.9 mph 1 mph 94% 0 in 26 W/m2
15:21 27.9 °F 26.1 °F 29.7 in Calm   4 mph 93% 0 in 25 W/m2
15:26 27.7 °F 25.9 °F 29.7 in NE 0.9 mph 1 mph 93% 0 in 23 W/m2
15:31 27.9 °F 26.1 °F 29.7 in East 0.9 mph 4 mph 93% 0 in 21 W/m2
15:36 27.9 °F 26.1 °F 29.7 in ESE 0.9 mph 2 mph 93% 0 in 23 W/m2
15:41 27.9 °F 26.1 °F 29.7 in Calm   3 mph 93% 0 in 26 W/m2
15:46 27.9 °F 26.1 °F 29.7 in Calm   1 mph 93% 0 in 28 W/m2
15:51 27.9 °F 26.4 °F 29.7 in East 4 mph 4 mph 94% 0 in 26 W/m2
15:56 27.9 °F 26.4 °F 29.7 in NE 2.9 mph 4 mph 94% 0 in 26 W/m2
16:01 27.9 °F 26.4 °F 29.7 in East 2 mph 3 mph 94% 0 in 26 W/m2
16:06 27.9 °F 26.1 °F 29.7 in Calm   4 mph 93% 0 in 21 W/m2
16:11 27.9 °F 26.1 °F 29.7 in Calm   2 mph 93% 0 in 18 W/m2
Juneau County Weather
Compliments of Weather Underground - 4 mb